This demonstration page uses our WeatherBlox Daily Observations layout. Learn more.

Left ArrowRight Arrow

Hourly Observations for September 10, 2015

Temp ( °F °C ) Dew Point ( °F °C ) Humidity (%) Winds ( mph kmh ) Pressure ( in mb ) Visibility ( mi km ) Precip ( " mm )
12:52 am 00:52 Mostly Cloudy 77 25 74 23.3 90 90 SW 7 11 29.88 1012 8 13 0.00 0.00
12:59 am 00:59 Mostly Cloudy 77 25 74 23.3 90 90 SSW 7 11 29.88 1012 8 13 0.00 0.00
1:18 am 01:18 Mostly Cloudy 77 25 74 23.3 90 90 SSW 12 19 29.88 1012 7 11 0.00 0.00
1:59 am 01:59 Mostly Cloudy 77 25 74 23.3 90 90 SW 9 15 29.87 1012 7 11 0.00 0.00
2:12 am 02:12 Mostly Cloudy 77 25 74 23.3 90 90 SW 8 13 29.88 1012 7 11 0.00 0.00
2:59 am 02:59 Mostly Cloudy 78 25.6 74 23.3 87 87 WSW 8 13 29.87 1011 7 11 0.00 0.00
3:59 am 03:59 Cloudy 78 25.6 74 23.3 87 87 WSW 6 9 29.85 1011 7 11 0.00 0.00
4:24 am 04:24 Cloudy 78 25.6 74 23.3 87 87 WSW 6 9 29.83 1010 7 11 0.00 0.00
4:40 am 04:40 Cloudy 78 25.6 74 23.3 87 87 WSW 7 11 29.83 1010 7 11 0.00 0.00
4:55 am 04:55 Cloudy 79 26 72 22 79 79 W 5 7 29.83 1010 9 14 0.00 0.00
4:59 am 04:59 Cloudy 78 25.6 72 22.2 82 82 WSW 6 9 29.84 1011 9 14 0.00 0.00
5:59 am 05:59 Cloudy 77 25 72 22.2 85 85 WSW 5 7 29.83 1010 9 14 0.00 0.03
6:59 am 06:59 Mostly Cloudy 76 24.4 71 21.7 85 85 SSW 5 7 29.85 1011 10 16 0.00 0.00
7:59 am 07:59 Mostly Cloudy 76 24.4 72 22.2 88 88 S 3 6 29.85 1011 9 14 0.00 0.00
8:48 am 08:48 Mostly Cloudy 78 25.6 72 22.2 82 82 SE 3 6 29.85 1011 10 16 0.00 0.00
8:59 am 08:59 Mostly Cloudy 78 25.6 72 22.2 82 82 SE 3 6 29.85 1011 9 14 0.00 0.00
9:28 am 09:28 Cloudy 79 26.1 73 22.8 82 82 S 5 7 29.85 1011 8 13 0.00 0.00
9:59 am 09:59 Cloudy 80 26.7 74 23.3 82 82 S 7 11 29.85 1011 7 11 0.00 0.00
10:31 am 10:31 Cloudy 80 26.7 73 22.8 79 79 SSW 7 11 29.85 1011 8 13 0.00 0.00
10:59 am 10:59 Cloudy 81 27.2 74 23.3 79 79 SW 6 9 29.84 1011 8 13 0.00 0.00
11:23 am 11:23 Mostly Cloudy 82 27.8 73 22.8 74 74 SW 6 9 29.83 1010 8 13 0.00 0.00
12:59 pm 12:59 Partly Cloudy 85 29.4 72 22.2 65 65 SW 14 22 29.80 1009 10 16 0.00 0.00
1:59 pm 13:59 Partly Cloudy 86 30 73 22.8 65 65 SSW 9 15 29.77 1008 10 16 0.00 0.00
2:59 pm 14:59 Partly Cloudy 87 30.6 72 22.2 61 61 SW 13 20 29.74 1007 10 16 0.00 0.00
3:59 pm 15:59 Partly Cloudy 88 31.1 72 22.2 59 59 SW 12 19 29.74 1007 10 16 0.00 0.00
4:59 pm 16:59 Partly Cloudy 87 30.6 71 21.7 59 59 SW 12 19 29.72 1006 10 16 0.00 0.00
5:59 pm 17:59 Partly Cloudy 86 30 72 22.2 63 63 SW 7 11 29.70 1006 10 16 0.00 0.00
6:25 pm 18:25 Mostly Cloudy with Thunderstorms 84 28.9 72 22.2 67 67 SW 7 11 29.71 1006 10 16 0.00 0.00
6:59 pm 18:59 Cloudy with Thunderstorms 84 28.9 72 22.2 67 67 WSW 7 11 29.72 1006 10 16 0.00 0.00
7:25 pm 19:25 Cloudy with Strong Thunderstorms 73 22.8 69 20.6 87 87 W 21 33 29.77 1008 2 3 0.00 0.03
7:33 pm 19:33 Cloudy with Strong Thunderstorms 73 22.8 69 20.6 87 87 W 15 24 29.77 1008 2 2 0.00 0.00
7:37 pm 19:37 Cloudy with Thunderstorms 73 22.8 69 20.6 87 87 W 14 22 29.77 1008 2 3 0.00 0.00
7:44 pm 19:44 Cloudy with Strong Thunderstorms 73 22.8 69 20.6 87 87 W 9 15 29.77 1008 4 6 0.00 0.00
7:55 pm 19:55 Cloudy with Strong Thunderstorms 72 22 70 21 94 94 WSW 8 13 29.77 1008 2 3 0.00 0.00
7:59 pm 19:59 Cloudy with Thunderstorms 72 22.2 69 20.6 91 91 WSW 6 9 29.76 1008 3 5 0.00 0.00
8:42 pm 20:42 Cloudy 72 22.2 70 21.1 94 94 Calm 29.77 1008 10 16 0.00 0.00
8:59 pm 20:59 Cloudy 72 22.2 70 21.1 94 94 SW 5 7 29.76 1008 9 14 0.08 2.03
9:46 pm 21:46 Cloudy with Thunderstorms 74 23.3 71 21.7 91 91 W 6 9 29.77 1008 10 16 0.00 0.00
9:59 pm 21:59 Cloudy with Light Rain 75 23.9 71 21.7 88 88 W 6 9 29.75 1008 10 16 0.00 0.03
10:59 pm 22:59 Cloudy 75 23.9 71 21.7 88 88 WSW 3 6 29.76 1008 10 16 0.00 0.03
11:59 pm 23:59 Cloudy with Light Rain 75 23.9 71 21.7 88 88 VRB 3 6 29.77 1008 10 16 0.00 0.03

Powered by AerisWeather